Powrót do katalogu

COSMOS 2491 DEB

AktywnyPO
NORAD 57562·DEBRIS·🇷🇺 Russia

Wystrzelony Dec 25, 2013 z Plesetsk Cosmodrome

Loading…

Następne Przeloty (najbliższe 24 godziny)

TLE

ŚwieżeSource: Space-Track

Epoka: Sep 13, 2026, 02:02 UTC

1 57562U 13076AZ  26256.08528166  .00000367  00000-0  15109-2 0  9993
2 57562  82.5990  25.7938 0003580 169.4940 190.6239 12.82584416156635

Śledź COSMOS 2491 DEB w czasie rzeczywistym z AllMySat

Download on the App Store